EW3232 Weather Reports


time (UTC)temp
C
wind
direction
speed
KPH
gust
KPH
rain 1hr
cm
rain 24hr
cm
rain mn
cm
humidity
%
barometer
mb
20260508060039 8 271 0.0 3.2 0.00 0.33 0.00 92 1012.2
20260508054626 8 260 3.2 6.4 0.00 0.33 0.00 92 1012.0
20260508053134 7 271 1.6 3.2 0.00 0.33 0.00 92 1011.9
20260508051642 7 286 1.6 6.4 0.00 0.33 0.00 93 1011.5
20260508050016 7 333 0.0 3.2 0.00 0.33 0.00 93 1011.1
20260508044527 7 252 3.2 4.8 0.00 0.33 0.00 93 1011.1
20260508043049 7 271 0.0 3.2 0.00 0.33 0.00 93 1011.3
20260508041601 7 272 3.2 6.4 0.00 0.33 0.00 93 1011.4
20260508040105 7 271 0.0 4.8 0.00 0.33 0.00 93 1011.7
20260508034629 7 271 3.2 4.8 0.00 0.33 0.00 93 1011.7
20260508033148 8 285 0.0 3.2 0.00 0.33 0.00 93 1011.7
20260508031552 8 236 0.0 3.2 0.00 0.33 0.00 94 1011.9
20260508030028 8 296 1.6 4.8 0.00 0.33 0.00 94 1011.8
20260508024548 8 273 1.6 3.2 0.00 0.33 0.00 93 1012.0
20260508023117 8 276 0.0 4.8 0.00 0.33 0.00 93 1012.0
20260508021631 8 280 1.6 3.2 0.00 0.33 0.00 93 1012.0
20260508014511 8 268 0.0 4.8 0.00 0.33 0.00 93 1012.1
20260508013027 9 285 0.0 3.2 0.00 0.33 0.00 92 1012.1
20260508011545 10 285 0.0 3.2 0.00 0.33 0.00 93 1012.2
20260508010028 10 285 1.6 4.8 0.00 0.33 0.00 93 1012.4
20260508004552 10 234 0.0 4.8 0.00 0.33 0.00 93 1012.6
20260508003108 10 260 0.0 3.2 0.00 0.33 0.00 93 1012.8
20260508001634 11 260 0.0 3.2 0.00 0.33 0.00 93 1012.9
20260508000147 10 260 1.6 3.2 0.00 0.33 0.00 93 1013.0
20260507234606 10 260 0.0 3.2 0.00 0.33 0.00 93 1013.0
20260507233032 10 260 1.6 3.2 0.00 0.33 0.00 92 1013.2
20260507230025 11 274 3.2 4.8 0.00 0.33 0.00 92 1013.2
20260507224604 11 259 3.2 4.8 0.00 0.33 0.00 92 1013.2
20260507223039 11 259 0.0 3.2 0.00 0.33 0.00 92 1013.3
20260507221550 11 259 1.6 3.2 0.00 0.33 0.00 92 1013.1
20260507220004 11 259 0.0 3.2 0.00 0.33 0.33 91 1012.9
20260507214557 11 259 0.0 3.2 0.00 0.33 0.33 91 1012.9
20260507213045 11 259 0.0 3.2 0.00 0.33 0.33 90 1012.9
20260507211606 11 252 3.2 6.4 0.00 0.33 0.33 91 1012.9
20260507210014 11 250 1.6 6.4 0.00 0.33 0.33 91 1012.8
20260507204519 12 277 1.6 3.2 0.00 0.33 0.33 91 1012.8
20260507203052 12 332 0.0 3.2 0.00 0.33 0.33 90 1012.8
20260507201538 12 65 0.0 3.2 0.00 0.33 0.33 90 1012.6
20260507200031 12 65 0.0 1.6 0.00 0.33 0.33 90 1012.5
20260507194551 12 65 0.0 3.2 0.00 0.33 0.33 89 1012.4
20260507193101 12 65 0.0 3.2 0.00 0.33 0.33 89 1012.1
20260507191619 13 65 0.0 3.2 0.00 0.33 0.33 88 1012.0
20260507190059 13 65 0.0 3.2 0.00 0.33 0.33 87 1012.0
20260507184621 13 65 0.0 3.2 0.00 0.33 0.33 86 1012.0
20260507183155 13 65 0.0 6.4 0.00 0.33 0.33 86 1011.8
20260507181510 14 46 1.6 4.8 0.00 0.33 0.33 85 1011.8
20260507180012 14 62 3.2 6.4 0.00 0.33 0.33 83 1011.7
20260507174539 14 63 3.2 9.7 0.00 0.33 0.33 81 1011.6
20260507173056 15 38 1.6 4.8 0.00 0.33 0.33 81 1011.5
20260507171627 15 81 4.8 9.7 0.00 0.33 0.33 79 1011.5
20260507170111 15 55 1.6 6.4 0.00 0.33 0.33 80 1011.4
20260507164648 15 65 3.2 8.0 0.00 0.33 0.33 79 1011.4
20260507163201 15 79 3.2 6.4 0.00 0.33 0.33 77 1011.4
20260507160008 15 62 6.4 14.5 0.00 0.33 0.33 77 1011.2
20260507154519 15 96 4.8 9.7 0.00 0.33 0.33 78 1011.0
20260507153025 15 48 4.8 9.7 0.00 0.33 0.33 77 1011.1
20260507151505 15 75 9.7 20.9 0.00 0.33 0.33 77 1011.0
20260507144515 15 116 14.5 22.5 0.00 0.33 0.33 74 1011.1
20260507143042 15 47 11.3 20.9 0.00 0.33 0.33 75 1011.3
20260507141612 16 112 12.9 20.9 0.00 0.33 0.33 72 1011.4
20260507140033 16 98 11.3 24.1 0.00 0.33 0.33 73 1011.4
20260507134514 16 80 9.7 20.9 0.00 0.33 0.33 75 1011.5
20260507133035 16 99 11.3 27.4 0.00 0.33 0.33 74 1011.5
20260507131614 16 56 11.3 19.3 0.00 0.33 0.33 70 1011.8
20260507130018 16 65 11.3 22.5 0.00 0.33 0.33 73 1012.1
20260507124537 16 79 9.7 24.1 0.00 0.33 0.33 79 1012.1
20260507123130 15 44 12.9 20.9 0.10 0.33 0.33 81 1012.2
20260507121626 15 12 9.7 19.3 0.33 0.33 0.33 85 1012.3
20260507120121 14 50 8.0 17.7 0.33 0.33 0.33 87 1012.5
20260507114637 13 37 8.0 17.7 0.33 0.33 0.33 86 1012.7
20260507113136 13 21 8.0 22.5 0.20 0.20 0.20 85 1012.8
20260507111631 15 130 11.3 20.9 0.00 0.00 0.00 77 1012.8
20260507110117 15 15 6.4 17.7 0.00 0.00 0.00 73 1012.8
20260507104644 16 68 6.4 22.5 0.00 0.00 0.00 71 1012.9
20260507103155 16 23 6.4 19.3 0.00 0.00 0.00 70 1012.9
20260507101507 15 92 3.2 16.1 0.00 0.00 0.00 74 1013.1
20260507100004 15 58 8.0 17.7 0.00 0.00 0.00 74 1013.3
20260507094513 15 100 6.4 17.7 0.00 0.00 0.00 74 1013.2
20260507093035 15 92 3.2 11.3 0.00 0.00 0.00 75 1013.1
20260507091602 14 42 9.7 16.1 0.00 0.00 0.00 76 1013.1
20260507090042 14 37 6.4 16.1 0.00 0.00 0.00 75 1013.1
20260507084602 14 43 3.2 12.9 0.00 0.00 0.00 79 1013.1
20260507083046 13 46 4.8 9.7 0.00 0.00 0.00 79 1013.0
20260507081607 13 59 3.2 12.9 0.00 0.00 0.00 80 1013.1
20260507080147 13 35 6.4 16.1 0.00 0.00 0.00 83 1013.0
20260507074650 13 76 11.3 19.3 0.00 0.00 0.00 83 1012.9
20260507073149 13 23 1.6 20.9 0.00 0.00 0.00 83 1012.7
20260507070146 12 289 4.8 17.7 0.00 0.00 0.00 87 1013.0
20260507064649 12 69 1.6 6.4 0.00 0.00 0.00 88 1012.9
20260507063002 11 79 0.0 12.9 0.00 0.00 0.00 91 1012.9
20260507061504 8 42 0.0 3.2 0.00 0.00 0.00 90 1012.9